Regional Weather Roundup
Issued by NWS Sterling, VA

Home | Current Version | Previous Version | Text Only | Print | Product List | Glossary On
Versions: 1 2 3 4 5 6 7 8 9 10 11 12 13 14 15 16 17 18 19 20 21 22 23 24 25 26 27 28 29 30 31 32 33 34 35 36 37 38 39 40 41 42 43 44 45 46 47 48 49 50
000
ASUS41 KLWX 310510
RWRLWX

REGIONAL WEATHER ROUNDUP
NATIONAL WEATHER SERVICE BALTIMORE MD/WASHINGTON DC
100 AM EDT TUE MAY 31 2016

Note: "FAIR" indicates few or no clouds below 12,000 feet
with no significant weather and/or obstructions to visibility.
 TC=TEMPERATURE CELSIUS

 * =Non NWS site. Station does not report precipitation (e.g. rain,
    snow, etc.), thunder, or fog.

DCZ001-MDZ009-015-VAZ040>042-051-053>054-310600-
WASHINGTON METRO

CITY           SKY/WX    TMP DP  RH WIND       PRES   REMARKS
WASHINGTON NAT CLOUDY    71  67  87 S5        29.97S
DULLES         CLOUDY    70  67  90 S3        29.97F
QUANTICO       FAIR      70  66  87 W3        29.97F
COLLEGE PARK*  MOCLDY    70  66  88 CALM      29.97S
LEESBURG*      CLOUDY    73  72  94 S6        29.98F
MANASSAS*      CLOUDY    70  70 100 CALM      29.97F

$$

MDZ006>007-011-014-310600-
BALTIMORE METRO

CITY           SKY/WX    TMP DP  RH WIND       PRES   REMARKS
BWI AIRPORT    PTCLDY    70  68  93 S5        29.96F
MD SCIENCE CTR   N/A     73  68  84 MISG      29.95F
MARTIN STATE   MOCLDY    72  70  94 S8        29.96F
ANNAPOLIS      CLOUDY    69  68  96 S3        29.96F
FORT MEADE*    CLOUDY    68  66  94 S3        29.99F

$$

MDZ012-015-019>023-310600-
MARYLAND EASTERN SHORE

CITY           SKY/WX    TMP DP  RH WIND       PRES   REMARKS
OCEAN CITY     CLOUDY    67  66  97 CALM      29.97S
SALISBURY      CLOUDY    66  66 100 NW3       29.98S
BAY BRIDGE AP* CLOUDY    70  66  88 S3        29.97S
CAMBRIDGE*       N/A     64  64 100 SE3       29.97S
EASTON*        CLOUDY    69  69 100 CALM      30.00F

$$

MDZ017>025-310600-
SOUTHERN MARYLAND

CITY           SKY/WX    TMP DP  RH WIND       PRES   REMARKS
PATUXENT RIVER CLOUDY    67  65  93 CALM      29.97S
ST INIGOES     CLOUDY    66  65  96 CALM      29.96F
LEONARDTOWN*   CLOUDY    64  64 100 CALM      29.98F

$$

MDZ003>005-310600-
NORTH CENTRAL MARYLAND

CITY           SKY/WX    TMP DP  RH WIND       PRES   REMARKS
FREDERICK*     CLOUDY    72  72 100 S5        29.99F
HAGERSTOWN APT CLOUDY    70  64  81 W5        29.97F
WESTMINSTER*   PTCLDY    68  64  88 SW3       29.97F

$$

MDZ501>502-310600-
WESTERN MARYLAND

CITY           SKY/WX    TMP DP  RH WIND       PRES   REMARKS
OAKLAND*       CLEAR     63  55  77 CALM      30.08F
CUMBERLAND*    CLOUDY    64  64 100 CALM      30.03S VSB<1/4

$$

VAZ025>031-310600-
SHENANDOAH VALLEY

CITY           SKY/WX    TMP DP  RH WIND       PRES   REMARKS
WINCHESTER*    FAIR      64  63  94 CALM      29.98S
FRONT ROYAL*   FAIR      66  64  94 SW5       29.96F
LURAY*         FAIR      64  64 100 CALM      29.99F
NEW MARKET*    CLOUDY    65  65 100 CALM      29.98F
STAUNTON*      CLOUDY    65  63  92 NW3       30.02F
WAYNESBORO*    MOCLDY    67  62  84 W5        30.01F

$$

WVZ021-048>050-054>055-310600-
EASTERN WEST VIRGINIA PANHANDLE

CITY           SKY/WX    TMP DP  RH WIND       PRES   REMARKS
MARTINSBURG    MOCLDY    65  64  97 CALM      29.97F
PETERSBURG*    FAIR      63  62  98 CALM      30.01F

$$

VAZ036>039-050-310600-
CENTRAL FOOTHILLS

CITY           SKY/WX    TMP DP  RH WIND       PRES   REMARKS
CHARLOTTESVILL FAIR      67  65  93 S6        29.97F
CULPEPER*      CLOUDY    71  70  99 S3        29.97F FOG
ORANGE*        CLOUDY    70  70 100 SW3       29.98F FOG
GORDONSVILLE*  MOCLDY    69  69  99 CALM      29.96F
WARRENTON*     CLOUDY    70  65  85 CALM      29.96F

$$

VAZ055>057-310600-
NORTH AND CENTRAL PIEDMONT

CITY           SKY/WX    TMP DP  RH WIND       PRES   REMARKS
FREDERICKSBRG* FAIR      66  66 100 CALM      29.95F
STAFFORD*      FOG       63  62  96 CALM      30.00F VSB 1

$$

NCZ024-NYZ072-PAZ021-071-VAZ022-071-310600-
OTHER REGIONAL OBSERVATIONS

CITY           SKY/WX    TMP DP  RH WIND       PRES   REMARKS
NEW YORK CITY  CLOUDY    72  66  81 MISG      29.97F
PHILADELPHIA   CLOUDY    71  67  87 SW7       29.95F
PITTSBURGH     CLEAR     66  56  70 CALM      30.00S
ROANOKE        FAIR      68  64  87 NW5       30.03R
RICHMOND       MOCLDY    67  66  97 CALM      29.96F
RALEIGH        LGT RAIN  71  69  93 CALM      29.95F

$$

ANZ530>537-310600-
MARINE OBSERVATIONS

STATION/POSITION TIME  TEMP    WIND        PRES
                       AIR SEA DIR/SP/G
                 (UTC) (F)     (DEG/KT/KT) (MB)
THOMAS PT LIGHT  0500   69 69  190/  4/  4 1016.2R
BALT KEY BRIDGE  0400   72     200/  7/  9 1014.6
COVE POINT       0400   67     340/  3/  3 1015.6
LEWISETTA        0400   69 71   10/  1/  2 1014.4
SOLOMONS ISLAND  0400   68 67   40/  1/  1   N/A
PINEY POINT      0400           40/  2/  2   N/A

$$




USA.gov is the U.S. government's official web portal to all federal, state and local government web resources and services.